x

Nantucket Sound (44020) Wave Buoy

5:50 - Sat 23rd May 2015 All times are EDT. -4 hours from GMT.

  • Sig Wave height 2.6ft
  • Swell Direction
  • Peak Period 4s
  • Average Period 4s
  • Wind
    22mph, 29mph gusts
  • Sea Temp 55°f
  • Aire Temp 52°f
  • Sea Pressure 1022.6mb
  • Nantucket Sound
  • Nantucket Sound

More Historic Weather Station data

Upgrade to MSW Pro to gain access to the past 30 days of data for over 8000 Wavebouys and Weather Stations around the globe.

Join Pro

Comparision Forecast

View Surf forecast
   
sáb 05/23 5:50 2.5ft 4s 4s 22 29 mph 1022.6mb 55f 52f
4:50 2.5ft 4s 4s 22 25 mph 1020.9mb 55f 53f
3:50 2.5ft 4s 4s 25 29 mph 1019.4mb 56f 56f
2:50 2ft 3s 3s 18 22 mph 1018.8mb 56f 58f
1:50 2ft 3s 3s 18 25 mph 1018.5mb 56f 58f
12:50 2ft 3s 3s 18 22 mph 1018.2mb 56f 59f
vie 05/22 11:50 2ft 3s 3s 16 18 mph 1017.3mb 55f 60f
10:50 1.6ft 3s 3s 20 27 mph 1016.2mb 55f 61f
9:50 1.6ft 4s 3s 13 16 mph 1015.5mb 55f 60f
8:50 2.5ft 4s 4s 13 18 mph 1014.1mb 55f 60f
7:50 3ft 4s 4s 20 25 mph 1012.6mb 55f 60f
6:50 2.5ft 4s 4s 25 31 mph 1011.1mb 56f 61f
5:50 2.5ft 4s 4s 25 29 mph 1010.7mb 56f 60f
4:50 2ft 4s 3s 25 29 mph 1010.3mb 56f 59f
3:50 2ft 3s 3s 20 22 mph 1010.4mb 56f 58f
2:50 1.3ft 3s 3s 18 22 mph 1010.3mb 56f 58f
1:50 0.7ft  -  3s 18 20 mph 1009.9mb 56f 56f
12:50 0.7ft  -  4s 16 18 mph 1010.2mb 55f 54f
11:50 0.3ft  -  3s 11
mph
1010.6mb 55f 53f
10:50 0.7ft  -  3s 2 4 mph 1010.5mb 54f 52f
9:50 0.3ft  -  4s 4
mph
1010.3mb 54f 51f
8:50 0.7ft  -  4s 4 7 mph 1010.2mb 54f 50f
7:50 0.7ft  -  3s 7 9 mph 1010mb 54f 49f
6:50 0.7ft  -  3s 9
mph
1010.1mb 54f 50f
5:50 0.7ft  -  3s 4 7 mph 1010.2mb 55f 50f
4:50 1ft 3s 3s 4 7 mph 1010.2mb 55f 51f
3:50 1ft 2s 3s 7 9 mph 1010.5mb 55f 51f
2:50 1ft 2s 3s 11 13 mph 1010.7mb 55f 51f
1:50 0.7ft  -  3s 9 11 mph 1011.4mb 55f 52f
12:50 0.7ft  -  3s 7 9 mph 1012mb 55f 53f
jue 05/21 11:50 1ft 3s 3s 13
mph
1012.9mb 55f 53f
10:50 1.3ft 3s 3s 16 18 mph 1013.7mb 55f 54f
9:50 1.6ft 3s 3s 16 18 mph 1014mb 54f 55f
8:50 1.6ft 3s 3s 16 20 mph 1013.6mb 54f 55f
7:50 1.3ft 3s 3s 18 20 mph 1013.3mb 54f 55f
6:50 1.3ft 3s 3s 18 20 mph 1012.9mb 55f 55f
5:50 1.3ft 3s 3s 16 18 mph 1012.9mb 55f 55f
4:50 1.3ft 3s 3s 16 20 mph 1013.4mb 55f 55f
3:50 1.3ft 3s 3s 16 20 mph 1013.8mb 56f 55f
2:50 1ft 7s 3s 13 16 mph 1013.9mb 56f 55f
1:50 0.7ft  -  4s 13 16 mph 1014.5mb 55f 55f
12:50 0.3ft  -  4s 11 13 mph 1014.5mb 55f 55f
11:50 0.3ft  -  3s 7 9 mph 1015mb 55f 56f
10:50 0.7ft  -  3s 2 4 mph 1015.5mb 55f 55f
9:50 0.7ft  -  3s 4 7 mph 1015.7mb 55f 54f
8:50 1ft 3s 3s 7
mph
1015.5mb 53f 54f
7:50 1ft 3s 3s 9 11 mph 1014.8mb 53f 53f
6:50 1.3ft 3s 3s 11 13 mph 1014.5mb 53f 53f
5:50 1.3ft 3s 3s 11 13 mph 1014mb 53f 53f
4:50 1.3ft 3s 3s 13 18 mph 1013.2mb 54f 54f
3:50 1ft 3s 3s 13 16 mph 1013.5mb 55f 55f
2:50 1ft 3s 3s 13 16 mph 1013.2mb 55f 56f
1:50 1ft 8s 3s 11 13 mph 1013mb 55f 56f
12:50 1.3ft 3s 3s 9 13 mph 1013.1mb 55f 56f
mié 05/20 11:50 2ft 3s 3s 11 13 mph 1013.2mb 55f 56f
10:50 1.6ft 3s 3s 18 22 mph 1012.4mb 55f 56f
9:50 2.5ft 4s 3s 22 27 mph 1011.9mb 55f 57f
8:50 3ft 4s 4s 18 22 mph 1010.7mb 55f 58f
7:50 2.5ft 4s 4s 20 25 mph 1009.6mb 55f 58f
6:50 2ft 4s 4s 16 18 mph 1008.7mb 55f 58f
5:50 2ft 3s 3s 13 16 mph 1008.3mb 55f 58f
4:50 1.6ft 4s 4s 4
mph
1007.8mb 55f 60f
3:50 2ft 4s 4s 7
mph
1007mb 55f 60f
2:50 1.6ft 3s 4s 20 22 mph 1006.1mb 56f 60f
1:50 1.6ft 3s 3s 16 18 mph 1006.3mb 57f 59f
12:50 1.3ft 3s 3s 13 16 mph 1006.4mb 56f 59f
11:50 1.3ft 3s 3s 13 16 mph 1006.8mb 55f 58f
10:50 1.3ft 6s 3s 20 25 mph 1007.2mb 54f 57f
9:50 1.3ft 3s 3s 11
mph
1007.3mb 54f 57f
8:50 1.6ft 3s 3s 11 13 mph 1007.4mb 54f 57f
7:50 1.6ft 3s 3s 16 18 mph 1007.5mb 54f 56f
6:50 1ft 11s 3s 16 18 mph 1007.3mb 53f 57f
5:50 1ft 10s 4s 11 13 mph 1006.7mb 54f 56f
4:50 1ft 9s 4s 9 11 mph 1006mb 54f 56f
3:50 1.3ft 8s 4s 4
mph
1006.1mb 54f 57f
2:50 1.3ft 8s 4s 4 7 mph 1006.3mb 54f 57f
1:50 1.6ft 8s 4s 16 20 mph 1006.1mb 56f 57f
12:50 1.3ft 7s 4s 13
mph
1006.8mb 56f 57f
mar 05/19 11:50 1ft 8s 4s 13 16 mph 1007.8mb 56f 58f
10:50 1.3ft 3s 3s 13 16 mph 1008.3mb 56f 57f
9:50 1.6ft 3s 3s 13 16 mph 1008.6mb 54f 58f
8:50 1.6ft 3s 3s 18 20 mph 1008.3mb 54f 58f
7:50 2ft 3s 3s 18 22 mph 1008.5mb 54f 58f
6:50 1.6ft 3s 3s 18 20 mph 1009mb 54f 58f
5:50 1.6ft 3s 3s 18 20 mph 1009.7mb 54f 58f
4:50 1.6ft 3s 3s 18 20 mph 1010.5mb 54f 58f
3:50 1.6ft 3s 3s 16 18 mph 1011.1mb 54f 58f
2:50 1.6ft 3s 4s 16 18 mph 1012mb 54f 58f
1:50 2ft 3s 3s 13 16 mph 1012.9mb 55f 57f
12:50 1.6ft 7s 4s 16 20 mph 1013.6mb 56f 57f
11:50 1ft 3s 3s 11 13 mph 1014.5mb 55f 56f